Temperature
12 12 12 13 13 14 14 14 14 15 16 17 17 17 17 17 17 17 17 17 16 16 16 16 16 16 16 16 16 16 16 16 16 16 16 16 16 16
11 11 12 12 13 13 13 13 14 14 15 16 17 17 17 16 16 16 16 16 16 16 16 16 16 16 16 16 16 16 16 16 16 16 16 16 16 16
11 11 11 11 12 12 13 13 13 13 14 15 16 16 16 16 16 16 16 16 16 16 16 16 16 16 16 16 16 16 16 16 16 16 16 16 16 16
10 10 10 11 11 11 12 12 13 13 13 14 15 16 16 16 16 16 16 16 16 16 16 16 16 16 16 16 16 16 16 16 16 16 16 16 16 16
9 9 10 10 10 11 11 11 12 12 13 13 14 15 15 15 15 15 15 15 15 15 16 16 16 16 16 16 16 16 16 16 16 16 16 16 15 15
8 9 9 9 10 10 11 11 11 12 12 13 13 14 14 15 15 15 15 14 15 15 15 15 16 16 16 16 16 16 16 15 15 15 15 15 15 15
8 8 8 9 9 10 10 10 11 11 11 12 12 13 14 14 14 14 14 14 14 14 14 14 14 14 15 15 15 15 15 15 15 15 15 15 15 15
7 7 8 8 8 9 9 10 10 10 11 11 12 12 13 14 14 14 14 13 13 12 13 12 12 12 12 13 14 14 14 15 15 15 15 15 14 14
7 7 7 7 8 8 9 9 10 10 10 11 11 12 13 13 14 13 14 14 14 13 12 11 11 12 12 12 12 13 13 14 14 14 14 14 14 14
6 6 6 7 7 7 8 9 9 10 10 11 11 11 12 12 13 14 14 13 13 12 12 11 11 11 11 11 11 12 12 12 12 13 13 13 13 13
6 6 6 6 7 7 7 8 9 9 10 10 10 11 11 12 12 12 12 12 12 11 11 11 11 11 11 11 11 11 11 11 11 12 12 12 12 12
6 6 6 6 6 7 7 8 8 9 10 10 10 10 11 11 12 12 13 13 12 11 11 11 11 11 10 10 10 11 11 11 11 11 12 12 12 12
6 6 6 6 6 6 7 7 8 9 9 9 10 10 10 11 11 12 12 13 13 13 12 12 11 11 11 10 10 10 11 11 11 11 11 12 12 12
6 6 6 6 6 6 7 8 8 8 9 9 9 9 10 10 11 11 12 12 13 14 14 13 12 12 12 11 10 10 10 10 11 11 11 12 12 12
6 6 6 6 6 6 7 7 8 8 8 9 9 9 10 10 11 11 11 11 12 12 13 13 13 12 12 12 12 12 11 11 10 11 11 12 12 12
6 6 6 6 6 7 7 7 8 8 9 9 9 9 9 10 10 10 11 11 11 11 11 12 12 12 12 12 13 13 12 12 11 11 11 11 11 11
6 6 6 6 6 7 7 7 8 8 8 9 9 9 9 9 10 10 10 11 11 11 11 11 11 11 11 12 12 12 12 12 12 11 11 11 11 11
6 6 6 6 6 7 7 7 8 8 8 9 9 9 9 9 9 10 10 10 11 11 11 11 10 10 10 10 11 11 11 11 11 11 11 11 11 10
6 6 7 7 7 7 8 8 8 8 9 9 9 9 9 9 9 10 10 10 10 11 11 11 11 11 10 10 11 10 11 11 11 11 10 10 11 10
6 7 7 7 8 8 8 8 9 9 9 9 9 9 9 9 9 9 10 10 10 10 10 10 11 11 12 12 12 11 11 11 11 11 10 10 9 9
7 7 7 8 8 8 9 9 9 9 9 9 9 9 9 9 9 9 9 10 10 10 10 11 11 11 11 11 11 11 11 10 10 10 10 9 9 8
7 7 8 8 8 8 9 9 9 9 9 10 10 10 9 9 9 9 9 9 9 10 10 10 10 10 10 10 10 11 10 10 9 9 9 10 10 9
7 8 8 8 8 9 9 9 9 9 9 10 10 10 10 9 9 9 9 9 9 9 10 10 9 9 9 9 10 10 10 9 9 8 8 8 9 9
Wind_Speed
6 6 5 5 4 3 3 3 3 3 4 4 2 3 4 5 10 10 9 13 14 13 13 13 13 15 16 18 19 20 20 21 22 22 22 23 23 23
5 7 6 5 5 4 4 4 4 4 4 4 4 3 4 6 8 9 10 13 12 11 10 9 11 12 13 14 15 17 18 19 20 20 20 20 21 21
6 7 8 7 6 5 4 4 4 4 5 4 2 2 4 8 7 8 10 9 9 10 8 8 8 10 11 12 13 14 15 16 17 17 17 17 18 18
8 7 8 7 7 6 5 5 5 5 5 5 3 3 3 9 10 9 7 8 8 9 9 8 7 7 8 9 11 12 13 14 14 14 15 15 14 14
9 8 8 8 8 7 7 6 5 6 5 5 4 3 2 7 9 8 8 6 6 9 9 9 9 8 7 7 8 10 11 12 12 12 12 12 12 11
9 9 9 8 8 9 8 8 6 6 5 5 5 3 4 6 9 9 7 4 4 5 7 9 11 11 9 8 9 10 11 12 13 13 14 14 14 14
9 9 9 12 13 10 8 7 7 6 5 5 5 4 5 9 9 6 8 7 4 3 5 4 5 6 7 8 9 11 13 15 16 16 17 17 17 17
10 10 10 12 14 15 15 14 12 9 8 7 7 7 8 8 7 9 9 8 5 4 4 4 4 5 4 5 9 13 15 16 18 19 19 19 19 19
11 10 13 13 12 9 11 15 15 16 14 10 9 8 8 9 11 11 11 9 5 8 5 4 3 4 4 7 10 14 16 17 19 20 20 21 20 20
12 12 12 12 12 9 8 8 9 10 12 10 9 9 8 9 13 13 11 8 6 5 4 4 3 3 4 7 8 12 16 18 19 20 21 21 21 21
12 12 13 13 15 15 10 9 8 8 10 11 10 10 10 12 12 11 12 12 9 4 3 4 4 3 3 4 7 10 12 16 19 20 21 22 23 21
9 11 16 15 15 15 11 10 10 8 8 7 6 6 7 10 16 15 15 14 10 5 4 5 5 4 4 2 3 6 9 12 16 19 20 21 20 15
8 8 8 14 15 15 13 10 11 9 8 9 8 6 6 7 10 11 11 14 11 5 9 7 6 4 5 4 2 3 4 6 9 11 15 16 16 14
8 7 8 12 13 13 11 11 13 10 7 7 7 7 7 7 8 10 10 8 6 7 14 10 6 7 6 5 4 3 3 4 6 5 8 11 12 12
7 9 9 11 10 9 11 12 10 7 7 7 9 8 7 7 7 8 8 8 7 8 13 7 10 10 6 6 7 6 4 4 4 3 3 4 5 7
4 5 7 7 6 5 6 6 6 7 8 8 8 7 6 6 7 7 8 10 8 5 5 7 10 13 6 7 9 8 6 8 8 5 5 3 6 10
1 1 1 2 3 3 3 4 4 5 6 6 6 6 7 7 6 7 8 9 7 9 7 5 6 6 6 8 8 9 7 6 7 7 5 4 4 7
1 1 2 3 3 4 4 4 4 5 6 6 6 7 7 7 7 7 9 9 10 9 8 8 9 6 5 3 4 10 8 7 7 7 5 5 4 5
1 2 2 3 4 5 5 5 6 6 5 6 6 7 7 7 8 9 9 10 9 9 10 10 11 9 7 6 5 8 10 10 10 8 6 4 5 6
2 2 3 3 3 4 5 5 5 5 5 6 6 7 7 8 8 9 9 10 10 9 9 9 11 10 8 9 7 6 13 11 10 10 7 4 3 6
3 4 4 3 3 3 4 4 5 5 6 6 6 7 7 8 8 9 9 13 11 10 13 12 9 9 7 8 7 5 7 15 14 9 9 6 4 4
5 5 5 5 4 4 4 4 4 5 6 6 6 7 7 8 9 10 10 11 11 10 10 8 8 8 6 7 8 8 8 8 10 14 16 12 7 8
6 6 5 5 5 4 4 5 5 5 5 6 7 7 8 8 8 9 10 11 11 10 11 10 8 6 6 6 7 7 9 9 7 5 4 7 10 13
Wind_Direction
262 263 262 266 254 232 218 200 209 250 258 253 236 194 168 150 160 156 152 161 164 169 177 187 194 200 203 206 209 212 215 217 220 221 223 224 224 225
267 263 261 261 259 245 226 218 205 214 246 250 232 199 163 144 137 128 126 128 132 143 157 176 192 199 204 207 210 213 216 218 220 221 223 223 224 226
283 270 261 258 255 251 234 222 221 208 237 256 241 190 145 143 128 117 116 111 113 124 140 163 185 196 202 207 210 212 213 214 216 217 218 220 221 223
277 272 266 264 254 246 237 229 225 218 222 245 238 195 157 155 143 133 121 113 108 112 123 138 154 171 186 198 204 208 209 209 209 208 208 208 208 208
266 264 261 257 255 247 237 232 228 230 217 229 236 209 152 152 141 127 118 111 107 109 105 110 121 132 146 167 182 188 189 188 188 187 183 180 179 178
262 259 255 247 245 244 239 232 225 225 221 228 234 211 169 159 148 145 138 124 116 104 97 97 102 102 113 132 149 160 163 163 161 158 156 154 151 148
262 258 255 257 253 244 237 224 217 217 215 220 229 209 178 172 165 156 148 136 108 121 115 94 89 82 80 100 124 140 145 146 145 143 141 139 137 134
255 257 261 266 263 255 246 231 213 210 211 212 222 214 200 181 165 157 150 151 152 156 126 99 80 78 56 73 119 132 135 136 135 133 132 131 130 128
244 248 261 262 258 247 246 240 227 217 206 202 214 218 203 187 169 166 168 161 151 156 130 102 75 72 49 71 115 127 129 130 130 129 127 126 125 123
240 237 239 246 249 240 238 237 225 217 211 205 209 215 211 194 180 173 162 134 106 124 113 113 99 76 54 55 88 119 127 128 128 126 124 123 120 117
243 238 233 235 237 230 224 226 223 221 214 202 201 210 206 193 174 156 154 152 151 149 118 118 125 100 66 49 62 95 117 126 127 126 125 123 119 112
244 240 236 230 228 221 215 211 212 207 189 185 187 195 196 187 176 174 168 166 157 153 157 128 136 130 106 66 60 84 101 112 122 126 128 127 124 114
241 237 233 225 222 218 209 206 207 191 184 183 181 187 190 187 184 181 177 172 166 159 161 142 141 130 124 125 106 98 116 125 121 127 129 131 132 128
240 236 230 222 221 216 208 206 199 183 176 178 184 194 198 196 189 182 178 173 157 151 160 150 142 151 136 133 143 134 129 143 142 142 139 132 127 127
237 232 226 219 212 208 204 190 179 177 178 180 192 199 198 191 179 172 161 138 108 130 154 147 143 150 143 146 149 151 152 175 170 152 154 148 147 143
242 235 221 200 182 173 171 174 176 182 179 186 192 189 178 177 180 172 166 155 138 125 127 138 147 150 141 144 153 160 158 166 173 172 159 153 164 168
224 184 160 153 150 151 147 154 169 173 178 178 179 176 175 175 174 167 160 153 151 155 149 131 126 113 120 142 150 158 153 152 164 162 154 155 175 177
211 184 176 169 171 176 174 172 180 185 184 175 174 174 174 174 170 165 161 162 159 157 155 150 142 122 95 63 141 160 162 158 157 160 150 151 174 184
237 218 199 190 189 184 187 189 189 190 180 173 173 172 169 167 167 168 169 165 161 159 160 161 162 157 155 164 182 174 167 163 161 167 169 157 172 184
245 236 225 215 201 192 192 194 191 179 176 176 171 169 167 166 168 170 173 169 163 158 160 169 178 176 175 165 158 174 176 166 167 173 172 153 144 165
253 251 241 229 215 205 201 196 190 184 180 174 174 172 169 166 170 173 173 166 162 166 175 182 180 149 115 117 124 141 168 178 172 169 166 155 149 151
249 247 245 237 226 214 204 191 185 181 176 175 175 174 171 170 172 173 173 173 174 176 176 162 144 146 150 159 157 152 158 168 178 176 174 169 162 178
238 239 238 236 227 218 206 195 188 186 182 176 172 171 170 170 171 171 172 173 174 170 162 156 157 163 169 158 150 149 156 163 160 153 171 196 199 200
Height
1468 1469 1469 1469 1469 1470 1471 1472 1474 1473 1473 1474 1475 1477 1480 1482 1485 1488 1491 1494 1497 1500 1503 1506 1509 1512 1515 1518 1521 1525 1529 1532 1536 1539 1542 1545 1548 1551
1462 1463 1463 1464 1464 1465 1466 1467 1469 1470 1470 1471 1472 1474 1476 1479 1481 1484 1487 1490 1493 1496 1499 1502 1505 1507 1510 1514 1517 1520 1523 1527 1530 1533 1537 1540 1543 1546
1455 1456 1457 1458 1459 1460 1461 1462 1463 1465 1466 1467 1468 1470 1473 1475 1478 1481 1483 1486 1489 1491 1494 1497 1500 1503 1506 1510 1513 1516 1519 1522 1525 1528 1531 1534 1537 1540
1448 1449 1450 1451 1452 1454 1455 1456 1458 1460 1461 1462 1464 1466 1468 1471 1474 1477 1480 1482 1485 1487 1490 1492 1495 1499 1502 1505 1508 1512 1515 1518 1521 1524 1527 1530 1532 1535
1441 1441 1442 1444 1445 1447 1449 1451 1452 1454 1456 1457 1459 1462 1464 1467 1470 1473 1476 1479 1481 1483 1485 1488 1491 1494 1498 1501 1504 1508 1511 1514 1516 1519 1522 1525 1527 1530
1433 1433 1434 1436 1438 1440 1442 1444 1446 1448 1450 1452 1454 1457 1460 1462 1465 1468 1472 1475 1477 1480 1482 1484 1487 1490 1493 1497 1500 1504 1507 1510 1513 1516 1518 1521 1523 1526
1426 1426 1426 1427 1429 1432 1435 1437 1440 1442 1444 1446 1448 1452 1455 1457 1460 1464 1468 1471 1474 1477 1479 1481 1484 1486 1489 1493 1497 1500 1503 1506 1509 1512 1515 1517 1520 1523
1418 1418 1418 1419 1421 1423 1427 1430 1433 1435 1438 1440 1442 1445 1449 1452 1455 1459 1463 1467 1471 1474 1476 1479 1482 1485 1488 1491 1494 1498 1501 1504 1506 1509 1512 1515 1517 1520
1409 1409 1409 1410 1412 1415 1418 1422 1425 1428 1431 1434 1436 1439 1443 1447 1450 1454 1458 1463 1467 1470 1474 1477 1481 1484 1488 1490 1493 1496 1499 1502 1504 1507 1509 1512 1515 1518
1399 1399 1400 1401 1403 1406 1410 1413 1416 1420 1424 1427 1430 1434 1438 1442 1445 1450 1454 1460 1465 1469 1472 1475 1479 1483 1487 1490 1492 1495 1498 1501 1503 1506 1508 1511 1514 1516
1389 1389 1390 1391 1394 1398 1401 1404 1408 1412 1417 1421 1424 1427 1431 1435 1440 1444 1449 1455 1460 1465 1469 1473 1477 1480 1485 1488 1491 1494 1497 1500 1503 1505 1508 1510 1513 1515
1380 1380 1381 1383 1385 1389 1392 1396 1400 1405 1410 1414 1418 1421 1424 1429 1433 1438 1443 1449 1454 1460 1464 1469 1474 1478 1483 1487 1490 1493 1496 1499 1502 1505 1507 1510 1513 1515
1371 1371 1373 1375 1378 1380 1384 1388 1393 1399 1404 1408 1412 1415 1419 1423 1427 1432 1438 1444 1448 1453 1458 1464 1469 1474 1478 1483 1487 1491 1494 1497 1500 1503 1506 1509 1512 1514
1365 1365 1366 1368 1371 1373 1377 1382 1388 1393 1398 1402 1405 1409 1413 1417 1422 1427 1433 1439 1445 1450 1454 1460 1464 1469 1474 1479 1483 1487 1491 1495 1499 1502 1505 1508 1510 1513
1360 1360 1361 1363 1365 1368 1372 1377 1382 1387 1392 1396 1400 1404 1409 1413 1418 1423 1429 1435 1441 1447 1452 1457 1462 1467 1472 1476 1479 1483 1487 1492 1496 1500 1504 1507 1509 1512
1357 1357 1358 1359 1362 1365 1369 1373 1378 1383 1388 1392 1396 1401 1405 1409 1413 1418 1423 1429 1435 1442 1449 1455 1460 1466 1470 1474 1478 1481 1485 1488 1493 1498 1502 1505 1508 1511
1356 1356 1357 1359 1361 1363 1367 1371 1376 1380 1385 1389 1393 1397 1401 1405 1409 1414 1419 1424 1430 1436 1443 1450 1456 1463 1469 1472 1476 1479 1483 1487 1491 1495 1499 1503 1506 1509
1357 1357 1357 1359 1361 1364 1367 1371 1375 1379 1382 1387 1391 1394 1398 1402 1406 1411 1415 1420 1426 1432 1439 1445 1451 1457 1463 1468 1473 1477 1481 1485 1489 1494 1497 1501 1504 1508
1357 1357 1358 1360 1362 1364 1368 1371 1375 1378 1382 1386 1389 1393 1396 1400 1404 1408 1412 1417 1423 1429 1435 1441 1447 1451 1457 1462 1468 1473 1477 1482 1487 1491 1495 1499 1503 1507
1358 1358 1359 1361 1363 1365 1368 1371 1374 1378 1381 1385 1388 1391 1394 1398 1401 1405 1410 1414 1420 1425 1431 1438 1443 1448 1453 1458 1463 1468 1473 1478 1483 1487 1492 1497 1502 1507
1357 1358 1359 1361 1363 1365 1367 1370 1373 1376 1379 1382 1385 1389 1392 1395 1399 1403 1408 1412 1417 1422 1427 1434 1440 1446 1452 1457 1462 1466 1471 1476 1481 1486 1490 1495 1499 1502
1355 1356 1358 1360 1362 1364 1366 1369 1371 1374 1377 1380 1383 1386 1390 1393 1397 1401 1404 1409 1413 1419 1425 1431 1437 1443 1448 1453 1458 1463 1468 1473 1479 1484 1490 1493 1495 1498
1353 1354 1356 1357 1360 1362 1364 1366 1369 1371 1374 1377 1380 1383 1387 1390 1394 1398 1402 1406 1411 1416 1421 1427 1433 1439 1445 1450 1455 1460 1465 1470 1475 1480 1485 1490 1495 1499